When you browse on this site, cookies collect data to enhance your experience and personalize the content and advertising you see.
Visit our Privacy Policy to learn more. By continuing to use the site, you agree to this use of cookies and data.
  • In Austria
  • List of Countries
  • For 7 days
  • Water Temperature
  • Weather Map
  • News
  • Weather Widgets
  • user-avatar
    Login

    Hourly Weather Arakaka

    Today, 22 January, Wednesday

    Time Temperature Precipitation Wind Pressure Humidity
    00:00 +21°C° 0 mm 0 mps 753 mmHg 99%
    01:00 +21°C° 0 mm 0 mps 752 mmHg 99%
    02:00 +20°C° 0 mm 0 mps 752 mmHg 99%
    03:00 +20°C° 0 mm 0 mps 752 mmHg 99%
    04:00 +20°C° 0 mm 0 mps 752 mmHg 99%
    05:00 +20°C° 0 mm 0 mps 752 mmHg 99%
    06:00 +21°C° 0 mm 0 mps 753 mmHg 97%
    07:00 +22°C° 0 mm 0 mps 753 mmHg 95%
    08:00 +24°C° 0 mm 1 mps 753 mmHg 93%
    09:00 +27°C° 0 mm 1 mps 753 mmHg 81%
    10:00 +29°C° 0 mm 1 mps 753 mmHg 68%
    11:00 +31°C° 0 mm 1 mps 754 mmHg 56%
    12:00 +32°C° 0 mm 1 mps 753 mmHg 53%
    13:00 +32°C° 0 mm 1 mps 752 mmHg 50%
    14:00 +33°C° 0 mm 1 mps 751 mmHg 47%
    15:00 +32°C° 0.1 mm 1 mps 751 mmHg 55%
    16:00 +31°C° 0.1 mm 2 mps 750 mmHg 63%
    17:00 +30°C° 0.1 mm 2 mps 750 mmHg 71%
    18:00 +28°C° 0.1 mm 2 mps 751 mmHg 79%
    19:00 +26°C° 0.1 mm 1 mps 751 mmHg 88%
    20:00 +24°C° 0.1 mm 1 mps 752 mmHg 97%
    21:00 +24°C° 0 mm 1 mps 752 mmHg 98%
    22:00 +24°C° 0 mm 1 mps 752 mmHg 98%
    23:00 +23°C° 0 mm 1 mps 753 mmHg 99%

    Tomorrow, 23 January, Thursday

    Time Temperature Precipitation Wind Pressure Humidity
    00:00 +23°C° 0 mm 1 mps 752 mmHg 99%
    01:00 +21°C° 0 mm 0 mps 752 mmHg 99%
    02:00 +20°C° 0 mm 0 mps 752 mmHg 99%
    03:00 +20°C° 0 mm 0 mps 752 mmHg 99%
    04:00 +20°C° 0 mm 0 mps 752 mmHg 99%
    05:00 +20°C° 0 mm 0 mps 752 mmHg 99%
    06:00 +20°C° 0 mm 0 mps 752 mmHg 96%
    07:00 +23°C° 0 mm 1 mps 753 mmHg 94%
    08:00 +24°C° 0 mm 1 mps 753 mmHg 91%
    09:00 +26°C° 0 mm 1 mps 753 mmHg 78%
    10:00 +29°C° 0 mm 1 mps 753 mmHg 64%
    11:00 +31°C° 0 mm 1 mps 753 mmHg 51%
    12:00 +32°C° 0 mm 1 mps 752 mmHg 48%
    13:00 +33°C° 0 mm 1 mps 752 mmHg 45%
    14:00 +34°C° 0 mm 1 mps 751 mmHg 41%
    15:00 +33°C° 0 mm 1 mps 750 mmHg 46%
    16:00 +32°C° 0 mm 1 mps 750 mmHg 50%
    17:00 +29°C° 0 mm 0 mps 749 mmHg 55%
    18:00 +29°C° 0 mm 1 mps 750 mmHg 64%
    19:00 +27°C° 0 mm 1 mps 751 mmHg 72%
    20:00 +24°C° 0 mm 1 mps 751 mmHg 81%
    21:00 +24°C° 0 mm 1 mps 752 mmHg 87%
    22:00 +23°C° 0 mm 1 mps 752 mmHg 92%
    23:00 +22°C° 0 mm 1 mps 752 mmHg 98%

    Day after tomorrow, 24 January, Friday

    Time Temperature Precipitation Wind Pressure Humidity
    00:00 +22°C° 0 mm 1 mps 752 mmHg 98%
    01:00 +19°C° 0 mm 0 mps 752 mmHg 99%
    02:00 +19°C° 0 mm 0 mps 751 mmHg 99%
    03:00 +19°C° 0 mm 0 mps 751 mmHg 99%
    04:00 +19°C° 0 mm 0 mps 751 mmHg 99%
    05:00 +19°C° 0 mm 0 mps 752 mmHg 99%
    06:00 +22°C° 0 mm 1 mps 752 mmHg 96%
    07:00 +23°C° 0 mm 1 mps 753 mmHg 93%
    08:00 +24°C° 0 mm 1 mps 754 mmHg 90%
    09:00 +25°C° 0 mm 1 mps 754 mmHg 81%
    10:00 +27°C° 0 mm 1 mps 754 mmHg 73%
    11:00 +29°C° 0 mm 2 mps 754 mmHg 64%
    12:00 +31°C° 0 mm 2 mps 753 mmHg 58%
    13:00 +32°C° 0 mm 1 mps 752 mmHg 51%
    14:00 +33°C° 0 mm 1 mps 751 mmHg 45%
    15:00 +32°C° 0 mm 1 mps 751 mmHg 50%
    16:00 +31°C° 0 mm 1 mps 751 mmHg 56%
    17:00 +31°C° 0 mm 1 mps 750 mmHg 61%
    18:00 +29°C° 0 mm 1 mps 751 mmHg 70%
    19:00 +27°C° 0 mm 1 mps 752 mmHg 79%
    20:00 +25°C° 0 mm 1 mps 752 mmHg 88%
    21:00 +24°C° 0 mm 1 mps 752 mmHg 91%
    22:00 +24°C° 0 mm 1 mps 753 mmHg 93%
    23:00 +23°C° 0 mm 1 mps 753 mmHg 96%

    25 January, Saturday

    Time Temperature Precipitation Wind Pressure Humidity
    00:00 +23°C° 0 mm 1 mps 753 mmHg 97%
    01:00 +22°C° 0 mm 1 mps 753 mmHg 98%
    02:00 +20°C° 0 mm 0 mps 753 mmHg 99%
    03:00 +20°C° 0 mm 0 mps 753 mmHg 99%
    04:00 +20°C° 0 mm 0 mps 753 mmHg 99%
    05:00 +20°C° 0 mm 0 mps 753 mmHg 99%
    06:00 +23°C° 0 mm 1 mps 753 mmHg 96%
    07:00 +24°C° 0 mm 1 mps 754 mmHg 93%
    08:00 +25°C° 0 mm 1 mps 755 mmHg 91%
    09:00 +26°C° 0 mm 1 mps 755 mmHg 82%
    10:00 +28°C° 0 mm 1 mps 754 mmHg 73%
    11:00 +30°C° 0 mm 2 mps 754 mmHg 64%
    12:00 +31°C° 0 mm 1 mps 754 mmHg 58%
    13:00 +32°C° 0 mm 1 mps 753 mmHg 51%
    14:00 +34°C° 0 mm 1 mps 752 mmHg 44%
    15:00 +33°C° 0 mm 1 mps 752 mmHg 49%
    16:00 +32°C° 0 mm 1 mps 751 mmHg 53%
    17:00 +31°C° 0 mm 1 mps 751 mmHg 58%
    18:00 +29°C° 0 mm 1 mps 751 mmHg 66%
    19:00 +27°C° 0 mm 1 mps 752 mmHg 75%
    20:00 +25°C° 0 mm 1 mps 752 mmHg 83%
    21:00 +24°C° 0 mm 1 mps 753 mmHg 88%
    22:00 +23°C° 0 mm 1 mps 753 mmHg 93%
    23:00 +23°C° 0 mm 1 mps 753 mmHg 99%

    26 January, Sunday

    Time Temperature Precipitation Wind Pressure Humidity
    00:00 +22°C° 0 mm 1 mps 753 mmHg 99%
    01:00 +20°C° 0 mm 0 mps 753 mmHg 99%
    02:00 +20°C° 0 mm 0 mps 752 mmHg 99%
    03:00 +20°C° 0 mm 0 mps 752 mmHg 99%
    04:00 +20°C° 0 mm 0 mps 753 mmHg 99%
    05:00 +20°C° 0 mm 0 mps 753 mmHg 99%
    06:00 +21°C° 0 mm 0 mps 753 mmHg 96%
    07:00 +21°C° 0 mm 0 mps 754 mmHg 94%
    08:00 +24°C° 0 mm 1 mps 754 mmHg 91%
    09:00 +26°C° 0 mm 1 mps 754 mmHg 83%
    10:00 +28°C° 0 mm 1 mps 754 mmHg 75%
    11:00 +29°C° 0 mm 1 mps 754 mmHg 67%
    12:00 +30°C° 0 mm 1 mps 754 mmHg 62%
    13:00 +32°C° 0 mm 1 mps 753 mmHg 57%
    14:00 +33°C° 0 mm 1 mps 752 mmHg 52%
    15:00 +32°C° 0 mm 1 mps 752 mmHg 56%
    16:00 +31°C° 0 mm 1 mps 751 mmHg 60%
    17:00 +31°C° 0 mm 2 mps 751 mmHg 64%
    18:00 +29°C° 0 mm 1 mps 752 mmHg 74%
    19:00 +27°C° 0 mm 1 mps 752 mmHg 84%
    20:00 +25°C° 0 mm 1 mps 753 mmHg 94%
    21:00 +25°C° 0 mm 1 mps 753 mmHg 95%
    22:00 +24°C° 0 mm 1 mps 754 mmHg 97%
    23:00 +24°C° 0 mm 1 mps 754 mmHg 99%

    27 January, Monday

    Time Temperature Precipitation Wind Pressure Humidity
    00:00 +22°C° 0 mm 0 mps 754 mmHg 99%
    01:00 +22°C° 0 mm 0 mps 753 mmHg 99%
    02:00 +21°C° 0 mm 0 mps 753 mmHg 99%
    03:00 +21°C° 0 mm 0 mps 753 mmHg 99%
    04:00 +21°C° 0 mm 0 mps 753 mmHg 99%
    05:00 +21°C° 0 mm 0 mps 753 mmHg 99%
    06:00 +22°C° 0 mm 0 mps 753 mmHg 95%
    07:00 +23°C° 0 mm 0 mps 754 mmHg 91%
    08:00 +24°C° 0 mm 0 mps 754 mmHg 87%
    09:00 +28°C° 0 mm 1 mps 754 mmHg 78%
    10:00 +30°C° 0 mm 1 mps 754 mmHg 68%
    11:00 +32°C° 0 mm 2 mps 754 mmHg 58%
    12:00 +34°C° 0.1 mm 2 mps 753 mmHg 57%
    13:00 +34°C° 0.1 mm 2 mps 753 mmHg 56%
    14:00 +35°C° 0.1 mm 2 mps 752 mmHg 54%
    15:00 +32°C° 0.3 mm 2 mps 751 mmHg 62%
    16:00 +31°C° 0.3 mm 2 mps 751 mmHg 70%
    17:00 +30°C° 0.3 mm 1 mps 751 mmHg 77%
    18:00 +28°C° 0.1 mm 1 mps 752 mmHg 83%
    19:00 +27°C° 0.1 mm 1 mps 752 mmHg 88%
    20:00 +25°C° 0.1 mm 1 mps 753 mmHg 94%
    21:00 +25°C° 0 mm 1 mps 753 mmHg 95%
    22:00 +25°C° 0 mm 1 mps 753 mmHg 97%
    23:00 +24°C° 0 mm 1 mps 754 mmHg 98%
    Show more